Regional Weather Roundup
Issued by NWS Jackson, KY

Home | Current Version | Previous Version | Text Only | Print | Product List | Glossary On
Versions: 1 2 3 4 5 6 7 8 9 10 11 12 13 14 15 16 17 18 19 20 21 22 23 24 25 26 27 28 29 30 31 32 33 34 35 36 37 38 39 40 41 42 43 44 45 46 47 48 49 50
000
ASUS43 KJKL 011710
RWRJKL

EAST KENTUCKY HOURLY WEATHER ROUNDUP
NATIONAL WEATHER SERVICE JACKSON KY
100 PM EDT SAT AUG 01 2015

NOTE: "FAIR" INDICATES FEW OR NO CLOUDS BELOW 12,000 FEET WITH
NO SIGNIFICANT WEATHER AND/OR OBSTRUCTIONS TO VISIBILITY.

* THESE REPORTS ARE NOT UNDER NWS QUALITY CONTROL AND MAY NOT
  REPORT WEATHER SUCH AS PRECIPITATION AND FOG.

KYZ079-080-083-085-087-088-110-112-115-119-120-011800
...EASTERN KENTUCKY...

CITY           SKY/WX    TMP DP  RH WIND       PRES   REMARKS
JACKSON        SUNNY     82  58  43 NW7       30.03F
LONDON         MOSUNNY   85  60  42 NW8       30.04F
SOMERSET*      SUNNY     81  63  54 NW5       30.04F
MONTICELLO*    SUNNY     87  69  54 N8        30.06F HX  91
WILLIAMSBURG*  MOSUNNY   82  64  54 SW3       30.04F
MIDDLESBORO*   MOSUNNY   84  64  50 CALM      30.05F
HAZARD APT*    SUNNY     82  59  44 NW5       30.03F
BLACK MTN*       N/A     73  59  60 W2          N/A
PIKEVILLE APT* MOSUNNY   81  61  50 W3        30.03F
BIG SANDY*     SUNNY     83  60  45 NW6       30.02F
MOREHEAD APT*  MOSUNNY   81  59  47 CALM      30.04F
$$

KYZ035-036-041-042-044-050-067-078-099-011800
...CENTRAL KENTUCKY...

CITY           SKY/WX    TMP DP  RH WIND       PRES   REMARKS
MT STERLING*   SUNNY     82  59  44 N7        30.04S
FLEMING/MASON* SUNNY     81  55  41 W3        30.03F
DANVILLE*      SUNNY     82  61  47 NW8       30.04F
RICHMOND*      SUNNY     82  59  44 W9        30.03S
LEXINGTON      SUNNY     83  59  44 NW5       30.03S
FRANKFORT      SUNNY     83  56  39 NW9G17    30.02S
$$

KYZ091>093-OHZ055-061-077-WVZ005-015-034-035-042-011800
...SOUTHERN OHIO/WEST VIRGINIA...

CITY           SKY/WX    TMP DP  RH WIND       PRES   REMARKS
COVINGTON      MOSUNNY   81  53  37 VRB5      30.02F
COLUMBUS       PTSUNNY   78  53  41 W12       29.98S
DAYTON         MOSUNNY   77  55  46 NW13      30.02F
WILMINGTON     MOSUNNY   79  53  40 W6        30.01F
HUNTINGTON     MOSUNNY   81  55  40 NE5       30.00F
CHARLESTON     MOSUNNY   82  55  39 NW10G18   30.00F
PINEVILLE*     MOSUNNY   81  63  54 MISG      30.09F
BECKLEY        PTSUNNY   76  54  46 VRB3G16   30.07F
BLUEFIELD      MOSUNNY   78  52  40 NW8G17    30.10F
$$

VAZ002-007-008-TNZ017-027-036-066-071-011800
...SOUTHWEST VIRGINIA/EAST TENNESSEE...

CITY           SKY/WX    TMP DP  RH WIND       PRES   REMARKS
WISE*          PTSUNNY   81  52  36 N8        30.11F
ABINGDON*      MOSUNNY   81  53  38 NE7       30.08F
BRISTOL        MOSUNNY   84  56  38 CALM      30.06F
KNOXVILLE      MOSUNNY   86  59  39 VRB5      30.03F
OAK RIDGE      SUNNY     88  63  43 CALM      30.05F
CROSSVILLE     MOSUNNY   82  62  50 N6        30.10S
NASHVILLE      MOSUNNY   90  66  45 N8        30.03F HX  92
$$

...KEY TO REMARKS...
VSB - VISIBILITY IN MILES
WCI - WIND CHILL INDEX
HX  - HEAT INDEX

$$



USA.gov is the U.S. government's official web portal to all federal, state and local government web resources and services.